Flag for Spain Weather past 2 weeks in Sevilla, Spain

Now
66 °F

Clear.


Feels Like: 66 °F
Forecast: 60 / 91 °F
Wind: 6 mph from Southwest

Location: Sevilla / San Pablo

Current Time: Aug 22, 2014 at 6:18:14 AM

Latest Report: Aug 22, 2014 at 6:00 AM


Visibility: 10 mi

Pressure: 29.98 "Hg

Humidity: 83%

Dew point: 61 °F

Location of SevillaLocation

Historic Weather in Sevilla — Graph

°F

Sevilla temperature yesterday

Maximum temperature yesterday: 91 °F (at 4:00 PM)
Minimum temperature yesterday: 63 °F (at 7:30 AM)
Average temperature yesterday: 78 °F

Past Weeks' High & Low Weather Summary

 TemperatureHumidityPressure
High99 °F (Aug 7, 5:00 PM)94% (Aug 19, 6:30 AM)30.07 "Hg (Aug 19, 6:30 AM)
Low63 °F (Aug 15, 7:00 AM)10% (Aug 13, 7:00 PM)29.80 "Hg (Aug 8, 6:00 PM)
Average81 °F47%29.93 "Hg
* Reported Aug 7 5:00 AM — Aug 22 5:00 AM, Sevilla, Weather by CustomWeather, © 2014

Note: Actual official high and low records may vary slightly from our data, if they occured in-between our weather recording intervals... More about our weather records

Advertising

Sevilla weather history for previous 24 hours

 ConditionsComfort  
Time TempWeatherWind HumidityBarometerVisibility
5:00 AM
Aug 22
66 °FPassing clouds.5 mph83%29.95 "HgN/A
4:30 AM66 °FPassing clouds.3 mph78%29.95 "HgN/A
4:00 AM66 °FClear.7 mph78%29.95 "Hg10 mi
3:30 AM68 °FPassing clouds.5 mph78%29.95 "HgN/A
1:00 AM70 °FPassing clouds.6 mph73%29.98 "HgN/A
12:30 AM72 °FPassing clouds.8 mph65%29.98 "HgN/A
12:00 AM72 °FPassing clouds.3 mph61%29.98 "HgN/A
11:30 PM
Aug 21
73 °FPassing clouds.7 mph57%29.98 "HgN/A
11:00 PM75 °FClear.10 mph50%29.95 "Hg10 mi
10:30 PM75 °FClear.13 mph50%29.95 "Hg10 mi
10:00 PM77 °FSunny.10 mph44%29.95 "Hg10 mi
9:30 PM79 °FSunny.15 mph39%29.95 "Hg10 mi
9:00 PM81 °FSunny.14 mph34%29.92 "Hg10 mi
8:30 PM82 °FSunny.17 mph32%29.92 "Hg10 mi
8:00 PM84 °FSunny.21 mph31%29.92 "Hg10 mi
7:30 PM86 °FSunny.20 mph27%29.92 "Hg10 mi
7:00 PM88 °FPassing clouds.20 mph25%29.92 "HgN/A
6:30 PM88 °FSunny.18 mph25%29.92 "Hg10 mi
6:00 PM90 °FPassing clouds.17 mph24%29.92 "HgN/A
5:30 PM91 °FPassing clouds.15 mph21%29.92 "HgN/A
5:00 PM91 °FPassing clouds.13 mph24%29.92 "HgN/A
4:30 PM91 °FPassing clouds.10 mph26%29.95 "HgN/A
4:00 PM91 °FPassing clouds.9 mph24%29.95 "HgN/A
3:30 PM90 °FPassing clouds.7 mph26%29.95 "HgN/A
3:00 PM90 °FPassing clouds.10 mph24%29.98 "HgN/A
2:30 PM88 °FPassing clouds.6 mph27%29.98 "HgN/A
2:00 PM88 °FPassing clouds.5 mph25%29.98 "HgN/A
1:30 PM88 °FPassing clouds.6 mph27%29.98 "HgN/A
1:00 PM86 °FPassing clouds.5 mph29%30.01 "HgN/A
12:30 PM84 °FPassing clouds.3 mph31%30.01 "HgN/A
12:00 PM82 °FSunny.1 mph35%30.01 "Hg10 mi
11:30 AM81 °FSunny.No wind39%30.01 "Hg10 mi
11:00 AM77 °FSunny.1 mph47%30.01 "Hg10 mi
10:30 AM75 °FSunny.No wind50%30.01 "Hg10 mi
10:00 AM73 °FSunny.No wind53%30.01 "Hg10 mi
9:30 AM72 °FSunny.No wind57%30.01 "Hg10 mi
9:00 AM68 °FSunny.No wind64%30.01 "Hg10 mi
8:30 AM64 °FClear.No wind68%29.98 "Hg10 mi
8:00 AM64 °FClear.No wind68%29.98 "Hg10 mi
7:30 AM63 °FClear.No wind73%29.98 "Hg10 mi
7:00 AM64 °FClear.1 mph68%29.98 "Hg10 mi
6:30 AM64 °FClear.2 mph68%29.98 "Hg10 mi
6:00 AM66 °FClear.No wind64%29.98 "Hg10 mi
Weather by CustomWeather, © 2014

See weather overviewHow to use our weather pages